Regional Weather Roundup
Issued by NWS

Home | Current Version | Previous Version | Text Only | Print | Product List | Glossary On
Versions: 1 2 3 4 5 6 7 8 9 10 11 12 13 14 15 16 17 18 19 20 21 22 23 24 25 26 27 28 29 30 31 32 33 34 35 36 37 38 39 40 41 42 43 44 45 46 47 48 49 50
000
ASCA44 KEWX 270820
RWRMX

LATIN AMERICA AND CARIBBEAN REGIONAL WEATHER ROUNDUP
NATIONAL WEATHER SERVICE AUSTIN/SAN ANTONIO TX
300 AM CDT FRI MAR 27 2015

NOTE: "FAIR" INDICATED FEW OR NO CLOUDS BELOW 12,000 FEET WITH NO
SIGNIFICANT WEATHER AND/OR OBSTRUCTIONS TO VISIBILITY.

BAJA CALIFORNIA

CITY           SKY/WX    TMP DP  RH WIND       PRES   REMARKS
TIJUANA        CLEAR     64  45  48 CALM      30.08F

NORTHWESTERN MEXICO

CITY           SKY/WX    TMP DP  RH WIND       PRES   REMARKS
HERMOSILLO       N/A    N/A N/A N/A MISG        N/A

NORTHEASTERN MEXICO

CITY           SKY/WX    TMP DP  RH WIND       PRES   REMARKS
MONTERREY      PTCLDY    55  45  67 W6        30.23S
REYNOSA        CLEAR     57  50  77 NW3       30.20R
SALTILLO       MOCLDY    50  43  76 NW7       30.32S WCI  47
CD. VICTORIA   CLOUDY    64  46  52 N14       30.21S

WESTERN MEXICO

CITY           SKY/WX    TMP DP  RH WIND       PRES   REMARKS
DEL BAJIO      PTCLDY    57  43  58 CALM      30.29S
GUADALAJARA    PTCLDY    55  45  67 CALM      30.17F
MAZATLAN       CLOUDY    63  57  82 N7        29.93F
P. VALLARTA    MOCLDY    72  70  94 CALM      29.95S
ZACATECAS      CLEAR     50  34  53 NE6       30.32S WCI  48

CENTRAL MEXICO

CITY           SKY/WX    TMP DP  RH WIND       PRES   REMARKS
MEXICO CITY    PTCLDY    57  46  67 E5        30.32S
QUERETARO      PTCLDY    55  52  88 CALM      30.31F
S. LUIS POTOSI PTCLDY    57  52  82 E6        30.24R
TOLUCA         PTCLDY    41  37  87 CALM      30.40S

SOUTHERN MEXICO

CITY           SKY/WX    TMP DP  RH WIND       PRES   REMARKS
ACAPULCO       CLEAR     75  72  88 CALM      29.93S
VERACRUZ       PTCLDY    75  66  73 N17       29.91F

YUCATAN PENINSULA

CITY           SKY/WX    TMP DP  RH WIND       PRES   REMARKS
CANCUN         PTCLDY    79  73  83 SE8       29.91F
COZUMEL        PTCLDY    70  70 100 CALM      29.91F
MERIDA         CLEAR     77  68  73 SE6       29.88F
TAPACHULA      CLEAR     79  75  89 CALM      29.90F

CENTRAL AMERICA

CITY           SKY/WX    TMP DP  RH WIND       PRES   REMARKS
MANAGUA        MOSUNNY   77  68  73 E5        29.86S

CARIBBEAN

CITY           SKY/WX    TMP DP  RH WIND       PRES   REMARKS
ARUBA          MOCLDY    79  75  89 E18       29.89S
KINGSTON       PTCLDY    81  72  74 SE15      29.92S
NASSAU         PTCLDY    77  72  83 S12       29.98F
SAN JUAN       PTCLDY    75  70  83 E6        30.03S
SANTO DOMINGO  PTCLDY    72  70  94 CALM      29.97F

$$




USA.gov is the U.S. government's official web portal to all federal, state and local government web resources and services.